This is the latest recevied weather packets stored in our database for station/object KK7MLS-13. If no packets are shown the sender has not sent any weather packets the latest 10 day(s).
| Time | Temp. | Humidity | Pressure | Rain* | Wind** | Luminosity | Snow |
|---|---|---|---|---|---|---|---|
| 1787999398 | 13.33° C | 81% | 1018.1 hPa | 0 mm | - | 0 W/m² | - |
| 1787999096 | 13.33° C | 81% | 1018.2 hPa | 0 mm | - | 0 W/m² | - |
| 1787998792 | 12.78° C | 82% | 1018.1 hPa | 0 mm | - | 0 W/m² | - |
| 1787998490 | 12.78° C | 82% | 1018.2 hPa | 0 mm | - | 0 W/m² | - |
| 1787998190 | 12.78° C | 83% | 1018.1 hPa | 0 mm | - | 0 W/m² | - |
| 1787997884 | 12.78° C | 83% | 1018.1 hPa | 0 mm | - | 0 W/m² | - |
| 1787997582 | 12.22° C | 83% | 1018.3 hPa | 0 mm | - | 0 W/m² | - |
| 1787997277 | 12.22° C | 82% | 1018.1 hPa | 0 mm | - | 0 W/m² | - |
| 1787996972 | 12.78° C | 82% | 1018.4 hPa | 0 mm | - | 0 W/m² | - |
| 1787996667 | 12.78° C | 81% | 1018.4 hPa | 0 mm | - | 0 W/m² | - |
| 1787996362 | 12.78° C | 81% | 1018.6 hPa | 0 mm | - | 0 W/m² | - |
| 1787996061 | 12.78° C | 80% | 1018.4 hPa | 0 mm | - | 0 W/m² | - |
| 1787995756 | 12.78° C | 80% | 1018.5 hPa | 0 mm | - | 0 W/m² | - |
| 1787995452 | 12.78° C | 79% | 1018.5 hPa | 0 mm | - | 0 W/m² | - |
| 1787995148 | 12.78° C | 79% | 1018.4 hPa | 0 mm | - | 0 W/m² | - |
| 1787994843 | 13.33° C | 79% | 1018.2 hPa | 0 mm | - | 0 W/m² | - |
| 1787994541 | 13.33° C | 78% | 1018.2 hPa | 0 mm | - | 0 W/m² | - |
| 1787994236 | 13.33° C | 78% | 1018.2 hPa | 0 mm | - | 0 W/m² | - |
| 1787993935 | 13.33° C | 77% | 1018.2 hPa | 0 mm | - | 0 W/m² | - |
| 1787993634 | 13.33° C | 77% | 1018.1 hPa | 0 mm | - | 0 W/m² | - |
| 1787993329 | 13.89° C | 77% | 1018.3 hPa | 0 mm | - | 0 W/m² | - |
| 1787993024 | 13.89° C | 76% | 1018.3 hPa | 0 mm | - | 0 W/m² | - |
| 1787992720 | 13.89° C | 75% | 1018.2 hPa | 0 mm | - | 0 W/m² | - |
| 1787992414 | 13.89° C | 75% | 1018.3 hPa | 0 mm | - | 0 W/m² | - |
| 1787992113 | 14.44° C | 74% | 1018.3 hPa | 0 mm | - | 0 W/m² | - |
* Rain latest hour (hover to see other rain measurements)
** Current wind speed in m/s (hover to see current wind gust speed)